Year,Month,Day,Hour,Minute,Value (Times are PST for temperature in C)
2009,09,14,10,38,15.90
2009,09,14,10,39,16.00
2009,09,14,10,41,16.10
2009,09,14,10,42,16.10
2009,09,14,10,43,16.10
2009,09,14,10,44,16.10
2009,09,14,10,45,16.20
2009,09,14,10,46,16.20
2009,09,14,10,47,16.30
2009,09,14,10,48,16.30
2009,09,14,10,49,16.40
2009,09,14,10,50,16.40
2009,09,14,10,51,16.50
2009,09,14,10,52,16.60
2009,09,14,10,53,16.60
2009,09,14,10,54,16.60
2009,09,14,10,55,16.60
2009,09,14,10,56,16.70
2009,09,14,10,57,16.70
2009,09,14,10,58,16.70
2009,09,14,10,59,16.70
2009,09,14,11,00,16.70
2009,09,14,11,01,16.70
2009,09,14,11,02,16.70
2009,09,14,11,03,16.70
2009,09,14,11,04,16.70
2009,09,14,11,05,16.70
2009,09,14,11,06,16.60
2009,09,14,11,07,16.60
2009,09,14,11,08,16.50
2009,09,14,11,09,16.40
2009,09,14,11,10,16.40
2009,09,14,11,11,16.40
2009,09,14,11,12,16.40
2009,09,14,11,13,16.50
2009,09,14,11,14,16.60
2009,09,14,11,15,16.60
2009,09,14,11,16,16.60
2009,09,14,11,17,16.70
2009,09,14,11,18,16.70
2009,09,14,11,19,16.80
2009,09,14,11,20,16.90
2009,09,14,11,21,17.00
2009,09,14,11,22,17.10
2009,09,14,11,23,17.10
2009,09,14,11,24,17.20
2009,09,14,11,25,17.30
2009,09,14,11,26,17.30
2009,09,14,11,27,17.30
2009,09,14,11,28,17.30
2009,09,14,11,29,17.30
2009,09,14,11,30,17.30
2009,09,14,11,31,17.30
2009,09,14,11,32,17.30
2009,09,14,11,33,17.30
2009,09,14,11,34,17.30
2009,09,14,11,35,17.30
2009,09,14,11,36,17.30
2009,09,14,11,37,17.30
2009,09,14,11,38,17.30
2009,09,14,11,39,17.30
2009,09,14,11,40,17.30
2009,09,14,11,41,17.30
2009,09,14,11,42,17.30
2009,09,14,11,43,17.20
2009,09,14,11,44,17.10
2009,09,14,11,45,17.00
2009,09,14,11,46,17.00
2009,09,14,11,47,17.00
2009,09,14,11,48,16.90
2009,09,14,11,49,16.90
2009,09,14,11,50,16.90
2009,09,14,11,51,16.90
2009,09,14,11,52,16.90
2009,09,14,11,53,16.90
2009,09,14,11,54,16.90
2009,09,14,11,55,16.90
2009,09,14,11,56,17.00
2009,09,14,11,57,17.00
2009,09,14,11,58,17.00
2009,09,14,11,59,17.00
2009,09,14,12,00,17.00
2009,09,14,12,01,17.00
2009,09,14,12,02,17.10
2009,09,14,12,03,17.10
2009,09,14,12,04,17.10
2009,09,14,12,05,17.20
2009,09,14,12,06,17.20
2009,09,14,12,07,17.20
2009,09,14,12,08,17.10
2009,09,14,12,09,17.10
2009,09,14,12,10,17.10
2009,09,14,12,11,17.10
2009,09,14,12,12,17.10
2009,09,14,12,13,17.20
2009,09,14,12,14,17.30
2009,09,14,12,15,17.30
2009,09,14,12,16,17.30
2009,09,14,12,17,17.30
2009,09,14,12,18,17.40
2009,09,14,12,19,17.40
2009,09,14,12,20,17.50
2009,09,14,12,21,17.50
2009,09,14,12,22,17.60
2009,09,14,12,23,17.70
2009,09,14,12,24,17.80
2009,09,14,12,25,17.80
2009,09,14,12,26,17.80
2009,09,14,12,27,17.80
2009,09,14,12,28,17.90
2009,09,14,12,29,17.90
2009,09,14,12,30,17.90
2009,09,14,12,31,17.80
2009,09,14,12,32,17.90
2009,09,14,12,33,17.90
2009,09,14,12,34,17.90
2009,09,14,12,35,18.00
2009,09,14,12,36,18.20
2009,09,14,12,37,18.30
2009,09,14,12,38,18.40
2009,09,14,12,39,18.50
2009,09,14,12,40,18.60
2009,09,14,12,41,18.60
2009,09,14,12,42,18.70
2009,09,14,12,43,18.90
2009,09,14,12,44,18.90
2009,09,14,12,45,18.90
2009,09,14,12,46,19.00
2009,09,14,12,47,19.10
2009,09,14,12,48,19.10
2009,09,14,12,49,19.00
2009,09,14,12,50,18.90
2009,09,14,12,51,19.00
2009,09,14,12,52,19.10
2009,09,14,12,53,19.10
2009,09,14,12,54,19.10
2009,09,14,12,55,19.00
2009,09,14,12,56,18.90
2009,09,14,12,57,18.90
2009,09,14,12,58,18.90
2009,09,14,12,59,18.80
2009,09,14,13,00,18.80
2009,09,14,13,01,18.90
2009,09,14,13,02,18.90
2009,09,14,13,03,18.90
2009,09,14,13,04,18.90
2009,09,14,13,05,19.00
2009,09,14,13,06,19.10
2009,09,14,13,07,19.10
2009,09,14,13,08,19.10
2009,09,14,13,09,19.10
2009,09,14,13,10,19.10
2009,09,14,13,11,19.10
2009,09,14,13,12,19.10
2009,09,14,13,13,19.20
2009,09,14,13,14,19.20
2009,09,14,13,15,19.30
2009,09,14,13,16,19.30
2009,09,14,13,17,19.40
2009,09,14,13,18,19.40
2009,09,14,13,19,19.40
2009,09,14,13,20,19.30
2009,09,14,13,21,19.20
2009,09,14,13,22,19.20
2009,09,14,13,23,19.30
2009,09,14,13,24,19.30
2009,09,14,13,25,19.30
2009,09,14,13,26,19.30
2009,09,14,13,27,19.30
2009,09,14,13,28,19.20
2009,09,14,13,29,19.20
2009,09,14,13,30,19.20
2009,09,14,13,31,19.10
2009,09,14,13,32,19.10
2009,09,14,13,33,19.00
2009,09,14,13,34,18.90
2009,09,14,13,35,18.90
2009,09,14,13,36,18.80
2009,09,14,13,37,18.70
2009,09,14,13,38,18.70
2009,09,14,13,39,18.70
2009,09,14,13,40,18.70
2009,09,14,13,41,18.70
2009,09,14,13,42,18.60
2009,09,14,13,43,18.60
2009,09,14,13,44,18.50
2009,09,14,13,45,18.40
2009,09,14,13,46,18.30
2009,09,14,13,47,18.20
2009,09,14,13,48,18.10
2009,09,14,13,49,18.10
2009,09,14,13,50,18.00
2009,09,14,13,51,17.90
2009,09,14,13,52,17.90
2009,09,14,13,53,17.90
2009,09,14,13,54,17.90
2009,09,14,13,55,17.90
2009,09,14,13,56,17.90
2009,09,14,13,57,17.90
2009,09,14,13,58,17.90
2009,09,14,13,59,17.90
2009,09,14,14,00,17.90
2009,09,14,14,01,17.90
2009,09,14,14,02,17.90
2009,09,14,14,03,17.90
2009,09,14,14,04,17.90
2009,09,14,14,05,18.00
2009,09,14,14,06,18.10
2009,09,14,14,07,18.20
2009,09,14,14,08,18.20
2009,09,14,14,09,18.20
2009,09,14,14,10,18.20
2009,09,14,14,11,18.10
2009,09,14,14,12,18.10
2009,09,14,14,13,18.00
2009,09,14,14,14,17.90
2009,09,14,14,15,17.90
2009,09,14,14,16,17.80
2009,09,14,14,17,17.80
2009,09,14,14,18,17.80
2009,09,14,14,19,17.70
2009,09,14,14,20,17.70
2009,09,14,14,21,17.60
2009,09,14,14,22,17.60
2009,09,14,14,23,17.60
2009,09,14,14,24,17.70
2009,09,14,14,25,17.70
2009,09,14,14,26,17.70
2009,09,14,14,27,17.60
2009,09,14,14,28,17.60
2009,09,14,14,29,17.70
2009,09,14,14,30,17.80
2009,09,14,14,31,17.90
2009,09,14,14,32,17.90
2009,09,14,14,33,17.90
2009,09,14,14,34,17.90
2009,09,14,14,35,17.90
2009,09,14,14,36,17.90
2009,09,14,14,37,17.90
2009,09,14,14,38,18.00
2009,09,14,14,39,18.00
2009,09,14,14,40,17.90
2009,09,14,14,41,17.90
2009,09,14,14,42,17.80
2009,09,14,14,43,17.80
2009,09,14,14,44,17.80
2009,09,14,14,45,17.90
2009,09,14,14,46,17.90
2009,09,14,14,47,17.90
2009,09,14,14,48,17.90
2009,09,14,14,49,17.80
2009,09,14,14,50,17.70
2009,09,14,14,51,17.60
2009,09,14,14,52,17.60
2009,09,14,14,53,17.50
2009,09,14,14,54,17.50
2009,09,14,14,55,17.40
2009,09,14,14,56,17.30
2009,09,14,14,57,17.20
2009,09,14,14,58,17.10
2009,09,14,14,59,17.00
2009,09,14,15,00,17.00
2009,09,14,15,01,16.90
2009,09,14,15,02,16.90
2009,09,14,15,03,16.90
2009,09,14,15,04,16.90
2009,09,14,15,05,16.90
2009,09,14,15,06,16.90
2009,09,14,15,07,16.90
2009,09,14,15,08,16.80
2009,09,14,15,09,16.80
2009,09,14,15,10,16.70
2009,09,14,15,11,16.60
2009,09,14,15,12,16.60
2009,09,14,15,13,16.70
2009,09,14,15,14,16.70
2009,09,14,15,15,16.70
2009,09,14,15,16,16.70
2009,09,14,15,17,16.80
2009,09,14,15,18,16.90
2009,09,14,15,19,16.90
2009,09,14,15,20,17.00
2009,09,14,15,21,17.00
2009,09,14,15,22,17.00
2009,09,14,15,23,17.10
2009,09,14,15,24,17.20
2009,09,14,15,25,17.20
2009,09,14,15,26,17.30
2009,09,14,15,27,17.30
2009,09,14,15,28,17.30
2009,09,14,15,29,17.30
2009,09,14,15,30,17.30
2009,09,14,15,31,17.20
2009,09,14,15,32,17.20
2009,09,14,15,33,17.20
2009,09,14,15,34,17.30
2009,09,14,15,35,17.40
2009,09,14,15,36,17.50
2009,09,14,15,37,17.60
2009,09,14,15,38,17.70
2009,09,14,15,39,17.80
2009,09,14,15,40,17.80
2009,09,14,15,41,17.70
2009,09,14,15,42,17.70
2009,09,14,15,43,17.70
2009,09,14,15,44,17.70
2009,09,14,15,45,17.70
2009,09,14,15,46,17.70
2009,09,14,15,47,17.60
2009,09,14,15,48,17.60
2009,09,14,15,49,17.70
2009,09,14,15,50,17.80
2009,09,14,15,51,17.90
2009,09,14,15,52,17.90
2009,09,14,15,53,17.90
2009,09,14,15,54,18.00
2009,09,14,15,55,17.90
2009,09,14,15,56,17.90
2009,09,14,15,57,17.90
2009,09,14,15,58,17.90
2009,09,14,15,59,17.90
2009,09,14,16,00,17.90
2009,09,14,16,01,18.00
2009,09,14,16,02,18.10
2009,09,14,16,03,18.10
2009,09,14,16,04,18.10
2009,09,14,16,05,18.00
2009,09,14,16,06,17.90
2009,09,14,16,07,17.90
2009,09,14,16,08,17.90
2009,09,14,16,09,18.10
2009,09,14,16,10,18.10
2009,09,14,16,11,18.20
2009,09,14,16,12,18.20
2009,09,14,16,13,18.20
2009,09,14,16,14,18.00
2009,09,14,16,15,18.00
2009,09,14,16,16,18.10
2009,09,14,16,17,18.10
2009,09,14,16,18,18.10
2009,09,14,16,19,18.10
2009,09,14,16,20,18.10
2009,09,14,16,21,18.10
2009,09,14,16,22,18.10
2009,09,14,16,23,18.10
2009,09,14,16,24,18.20
2009,09,14,16,25,18.20
2009,09,14,16,26,18.20
2009,09,14,16,27,18.20
2009,09,14,16,28,18.20
2009,09,14,16,29,18.30
2009,09,14,16,30,18.30
2009,09,14,16,31,18.40
2009,09,14,16,32,18.50
2009,09,14,16,33,18.50
2009,09,14,16,34,18.60
2009,09,14,16,35,18.60
2009,09,14,16,36,18.60
2009,09,14,16,37,18.70
2009,09,14,16,38,18.70
2009,09,14,16,39,18.70
2009,09,14,16,40,18.60
2009,09,14,16,41,18.40
2009,09,14,16,42,18.20
2009,09,14,16,43,18.00
2009,09,14,16,44,17.90
2009,09,14,16,45,17.90
2009,09,14,16,46,17.80
2009,09,14,16,47,17.80
2009,09,14,16,48,17.90
2009,09,14,16,49,17.90
2009,09,14,16,50,17.90
2009,09,14,16,51,17.90
2009,09,14,16,52,17.90
2009,09,14,16,53,18.00
2009,09,14,16,54,18.10
2009,09,14,16,55,18.20
2009,09,14,16,56,18.20
2009,09,14,16,57,18.20
2009,09,14,16,58,18.10
2009,09,14,16,59,18.10
2009,09,14,17,00,18.20
2009,09,14,17,01,18.20
2009,09,14,17,02,18.20
2009,09,14,17,03,18.20
2009,09,14,17,04,18.20
2009,09,14,17,05,18.20
2009,09,14,17,06,18.20
2009,09,14,17,07,18.20
2009,09,14,17,08,18.20
2009,09,14,17,09,18.30
2009,09,14,17,10,18.30
2009,09,14,17,11,18.40
2009,09,14,17,12,18.40
2009,09,14,17,13,18.40
2009,09,14,17,14,18.40
2009,09,14,17,15,18.40
2009,09,14,17,16,18.40
2009,09,14,17,17,18.40
2009,09,14,17,18,18.30
2009,09,14,17,19,18.30
2009,09,14,17,20,18.30
2009,09,14,17,21,18.30
2009,09,14,17,22,18.30
2009,09,14,17,23,18.30
2009,09,14,17,24,18.20
2009,09,14,17,25,18.20
2009,09,14,17,26,18.20
2009,09,14,17,27,18.10
2009,09,14,17,28,18.00
2009,09,14,17,29,17.90
2009,09,14,17,30,17.70
2009,09,14,17,31,17.50
2009,09,14,17,32,17.30
2009,09,14,17,33,17.20
2009,09,14,17,34,17.00
2009,09,14,17,35,17.00
2009,09,14,17,36,17.00
2009,09,14,17,37,16.90
2009,09,14,17,38,16.90
2009,09,14,17,39,16.90
2009,09,14,17,40,16.90
2009,09,14,17,41,16.90
2009,09,14,17,42,16.90
2009,09,14,17,43,17.00
2009,09,14,17,44,17.00
2009,09,14,17,45,17.00
2009,09,14,17,46,17.10
2009,09,14,17,47,17.10
2009,09,14,17,48,17.10
2009,09,14,17,49,17.00
2009,09,14,17,50,17.00
2009,09,14,17,51,16.90
2009,09,14,17,52,16.90
2009,09,14,17,53,16.80
2009,09,14,17,54,16.80
2009,09,14,17,55,16.70
2009,09,14,17,56,16.60
2009,09,14,17,57,16.50
2009,09,14,17,58,16.40
2009,09,14,17,59,16.30
2009,09,14,18,00,16.20
2009,09,14,18,01,16.10
2009,09,14,18,02,16.10
2009,09,14,18,03,16.10
2009,09,14,18,04,16.10
2009,09,14,18,05,16.10
2009,09,14,18,06,16.10
2009,09,14,18,07,16.10
2009,09,14,18,08,16.10
2009,09,14,18,09,16.10
2009,09,14,18,10,16.20
2009,09,14,18,11,16.20
2009,09,14,18,12,16.30
2009,09,14,18,13,16.30
2009,09,14,18,14,16.40
2009,09,14,18,15,16.40
2009,09,14,18,16,16.40
2009,09,14,18,17,16.50
2009,09,14,18,18,16.60
2009,09,14,18,19,16.70
2009,09,14,18,20,16.70
2009,09,14,18,21,16.70
2009,09,14,18,22,16.80
2009,09,14,18,23,16.80
2009,09,14,18,24,16.90
2009,09,14,18,25,16.90
2009,09,14,18,26,17.00
2009,09,14,18,27,17.00
2009,09,14,18,28,17.00
2009,09,14,18,29,17.00
2009,09,14,18,30,17.00
2009,09,14,18,31,17.00
2009,09,14,18,32,17.00
2009,09,14,18,33,17.00
2009,09,14,18,34,17.00
2009,09,14,18,35,17.00
2009,09,14,18,36,17.00
2009,09,14,18,37,17.00
2009,09,14,18,38,17.00
2009,09,14,18,39,17.00
2009,09,14,18,40,17.00
2009,09,14,18,41,17.00
2009,09,14,18,42,17.00
2009,09,14,18,43,17.00
2009,09,14,18,44,17.00
2009,09,14,18,45,16.90
2009,09,14,18,46,16.90
2009,09,14,18,47,16.80
2009,09,14,18,48,16.80
2009,09,14,18,49,16.70
2009,09,14,18,50,16.70
2009,09,14,18,51,16.70
2009,09,14,18,52,16.70
2009,09,14,18,53,16.70
2009,09,14,18,54,16.70
2009,09,14,18,55,16.70
2009,09,14,18,56,16.70
2009,09,14,18,57,16.70
2009,09,14,18,58,16.70
2009,09,14,18,59,16.70
2009,09,14,19,00,16.70
2009,09,14,19,01,16.60
2009,09,14,19,02,16.60
2009,09,14,19,03,16.60
2009,09,14,19,04,16.60
2009,09,14,19,05,16.60
2009,09,14,19,06,16.60
2009,09,14,19,07,16.60
2009,09,14,19,08,16.50
2009,09,14,19,09,16.40
2009,09,14,19,10,16.40
2009,09,14,19,11,16.40
2009,09,14,19,12,16.40
2009,09,14,19,13,16.40
2009,09,14,19,14,16.40
2009,09,14,19,15,16.40
2009,09,14,19,16,16.40
2009,09,14,19,17,16.40
2009,09,14,19,18,16.40
2009,09,14,19,19,16.40
2009,09,14,19,20,16.40
2009,09,14,19,21,16.40
2009,09,14,19,22,16.40
2009,09,14,19,23,16.40
2009,09,14,19,24,16.40
2009,09,14,19,25,16.40
2009,09,14,19,26,16.40
2009,09,14,19,27,16.40
2009,09,14,19,28,16.40
2009,09,14,19,29,16.30
2009,09,14,19,30,16.30
2009,09,14,19,31,16.30
2009,09,14,19,32,16.30
2009,09,14,19,33,16.30
2009,09,14,19,34,16.30
2009,09,14,19,35,16.30
2009,09,14,19,36,16.30
2009,09,14,19,37,16.30
2009,09,14,19,38,16.30
2009,09,14,19,39,16.30
2009,09,14,19,40,16.30
2009,09,14,19,41,16.30
2009,09,14,19,42,16.30
2009,09,14,19,43,16.30
2009,09,14,19,44,16.30
2009,09,14,19,45,16.30
2009,09,14,19,46,16.30
2009,09,14,19,47,16.20
2009,09,14,19,48,16.20
2009,09,14,19,49,16.20
2009,09,14,19,50,16.20
2009,09,14,19,51,16.20
2009,09,14,19,52,16.10
2009,09,14,19,53,16.10
2009,09,14,19,54,16.10
2009,09,14,19,55,16.10
2009,09,14,19,56,16.10
2009,09,14,19,57,16.10
2009,09,14,19,58,16.10
2009,09,14,19,59,16.00
2009,09,14,20,00,15.90
2009,09,14,20,01,15.90
2009,09,14,20,02,15.80
2009,09,14,20,03,15.80
2009,09,14,20,04,15.80
2009,09,14,20,05,15.80
2009,09,14,20,06,15.80
2009,09,14,20,07,15.70
2009,09,14,20,08,15.70
2009,09,14,20,09,15.70
2009,09,14,20,10,15.70
2009,09,14,20,11,15.60
2009,09,14,20,12,15.60
2009,09,14,20,13,15.60
2009,09,14,20,14,15.60
2009,09,14,20,15,15.60
2009,09,14,20,16,15.60
2009,09,14,20,17,15.60
2009,09,14,20,18,15.50
2009,09,14,20,19,15.50
2009,09,14,20,20,15.50
2009,09,14,20,21,15.50
2009,09,14,20,22,15.50
2009,09,14,20,23,15.50
2009,09,14,20,24,15.50
2009,09,14,20,25,15.50
2009,09,14,20,26,15.50
2009,09,14,20,27,15.50
2009,09,14,20,28,15.50
2009,09,14,20,29,15.50
2009,09,14,20,30,15.50
2009,09,14,20,31,15.50
2009,09,14,20,32,15.50
2009,09,14,20,33,15.50
2009,09,14,20,34,15.50
2009,09,14,20,35,15.50
2009,09,14,20,36,15.50
2009,09,14,20,37,15.50
2009,09,14,20,38,15.60
2009,09,14,20,39,15.60
2009,09,14,20,40,15.60
2009,09,14,20,41,15.60
2009,09,14,20,42,15.60
2009,09,14,20,43,15.60
2009,09,14,20,44,15.60
2009,09,14,20,45,15.60
2009,09,14,20,46,15.60
2009,09,14,20,47,15.60
2009,09,14,20,48,15.60
2009,09,14,20,49,15.60
2009,09,14,20,50,15.60
2009,09,14,20,51,15.60
2009,09,14,20,52,15.60
2009,09,14,20,53,15.60
2009,09,14,20,54,15.60
2009,09,14,20,55,15.60
2009,09,14,20,56,15.60
2009,09,14,20,57,15.60
2009,09,14,20,58,15.60
2009,09,14,20,59,15.60
2009,09,14,21,00,15.60
2009,09,14,21,01,15.60
2009,09,14,21,02,15.60
2009,09,14,21,03,15.60
2009,09,14,21,04,15.50
2009,09,14,21,05,15.50
2009,09,14,21,06,15.50
2009,09,14,21,07,15.50
2009,09,14,21,08,15.50
2009,09,14,21,09,15.50
2009,09,14,21,10,15.50
2009,09,14,21,11,15.40
2009,09,14,21,12,15.40
2009,09,14,21,13,15.40
2009,09,14,21,14,15.40
2009,09,14,21,15,15.30
2009,09,14,21,16,15.30
2009,09,14,21,17,15.30
2009,09,14,21,18,15.30
2009,09,14,21,19,15.30
2009,09,14,21,20,15.30
2009,09,14,21,21,15.30
2009,09,14,21,22,15.30
2009,09,14,21,23,15.30
2009,09,14,21,24,15.30
2009,09,14,21,25,15.20
2009,09,14,21,26,15.20
2009,09,14,21,27,15.20
2009,09,14,21,28,15.20
2009,09,14,21,29,15.20
2009,09,14,21,30,15.10
2009,09,14,21,31,15.10
2009,09,14,21,32,15.10
2009,09,14,21,33,15.10
2009,09,14,21,34,15.10
2009,09,14,21,35,15.10
2009,09,14,21,36,15.10
2009,09,14,21,37,15.10
2009,09,14,21,38,15.10
2009,09,14,21,39,15.10
2009,09,14,21,40,15.10
2009,09,14,21,41,15.10
2009,09,14,21,42,15.10
2009,09,14,21,43,15.10
2009,09,14,21,44,15.10
2009,09,14,21,45,15.10
2009,09,14,21,46,15.10
2009,09,14,21,47,15.10
2009,09,14,21,48,15.10
2009,09,14,21,49,15.10
2009,09,14,21,50,15.10
2009,09,14,21,51,15.10
2009,09,14,21,52,15.10
2009,09,14,21,53,15.10
2009,09,14,21,54,15.10
2009,09,14,21,55,15.10
2009,09,14,21,56,15.10
2009,09,14,21,57,15.00
2009,09,14,21,58,15.00
2009,09,14,21,59,15.00
2009,09,14,22,00,15.00
2009,09,14,22,01,15.00
2009,09,14,22,02,15.00
2009,09,14,22,03,15.00
2009,09,14,22,04,15.00
2009,09,14,22,05,14.90
2009,09,14,22,06,14.90
2009,09,14,22,07,14.90
2009,09,14,22,08,14.90
2009,09,14,22,09,14.90
2009,09,14,22,10,14.80
2009,09,14,22,11,14.80
2009,09,14,22,12,14.80
2009,09,14,22,13,14.80
2009,09,14,22,14,14.80
2009,09,14,22,15,14.80
2009,09,14,22,16,14.70
2009,09,14,22,17,14.70
2009,09,14,22,18,14.60
2009,09,14,22,19,14.60
2009,09,14,22,20,14.60
2009,09,14,22,21,14.60
2009,09,14,22,22,14.50
2009,09,14,22,23,14.50
2009,09,14,22,24,14.50
2009,09,14,22,25,14.50
2009,09,14,22,26,14.50
2009,09,14,22,27,14.40
2009,09,14,22,28,14.40
2009,09,14,22,29,14.40
2009,09,14,22,30,14.30
2009,09,14,22,31,14.30
2009,09,14,22,32,14.30
2009,09,14,22,33,14.30
2009,09,14,22,34,14.20
2009,09,14,22,35,14.20
2009,09,14,22,36,14.20
2009,09,14,22,37,14.20
2009,09,14,22,38,14.20
2009,09,14,22,39,14.20
2009,09,14,22,40,14.20
2009,09,14,22,41,14.20
2009,09,14,22,42,14.20
2009,09,14,22,43,14.20
2009,09,14,22,44,14.20
2009,09,14,22,45,14.20
2009,09,14,22,46,14.20
2009,09,14,22,47,14.20
2009,09,14,22,48,14.20
2009,09,14,22,49,14.20
2009,09,14,22,50,14.20
2009,09,14,22,51,14.20
2009,09,14,22,52,14.20
2009,09,14,22,53,14.20
2009,09,14,22,54,14.20
2009,09,14,22,55,14.10
2009,09,14,22,56,14.10
2009,09,14,22,57,14.10
2009,09,14,22,58,14.10
2009,09,14,22,59,14.10
2009,09,14,23,00,14.00
2009,09,14,23,01,14.00
2009,09,14,23,02,14.00
2009,09,14,23,03,14.00
2009,09,14,23,04,14.00
2009,09,14,23,05,14.00
2009,09,14,23,06,13.90
2009,09,14,23,07,13.90
2009,09,14,23,08,13.90
2009,09,14,23,09,13.90
2009,09,14,23,10,13.90
2009,09,14,23,11,13.90
2009,09,14,23,12,13.90
2009,09,14,23,13,13.90
2009,09,14,23,14,13.80
2009,09,14,23,15,13.80
2009,09,14,23,16,13.80
2009,09,14,23,17,13.80
2009,09,14,23,18,13.80
2009,09,14,23,19,13.80
2009,09,14,23,20,13.70
2009,09,14,23,21,13.70
2009,09,14,23,22,13.70
2009,09,14,23,23,13.70
2009,09,14,23,24,13.70
2009,09,14,23,25,13.70
2009,09,14,23,26,13.70
2009,09,14,23,27,13.70
2009,09,14,23,28,13.60
2009,09,14,23,29,13.60
2009,09,14,23,30,13.60
2009,09,14,23,31,13.60
2009,09,14,23,32,13.60
2009,09,14,23,33,13.70
2009,09,14,23,34,13.70
2009,09,14,23,35,13.70
2009,09,14,23,36,13.70
2009,09,14,23,37,13.70
2009,09,14,23,38,13.70
2009,09,14,23,39,13.70
2009,09,14,23,40,13.70
2009,09,14,23,41,13.70
2009,09,14,23,42,13.60
2009,09,14,23,43,13.60
2009,09,14,23,44,13.70
2009,09,14,23,45,13.70
2009,09,14,23,46,13.70
2009,09,14,23,47,13.70
2009,09,14,23,48,13.70
2009,09,14,23,49,13.60
2009,09,14,23,50,13.60
2009,09,14,23,51,13.60
2009,09,14,23,52,13.50
2009,09,14,23,53,13.50
2009,09,14,23,54,13.50
2009,09,14,23,55,13.40
2009,09,14,23,56,13.40
2009,09,14,23,57,13.40
2009,09,14,23,58,13.40
2009,09,14,23,59,13.30
